[[{"header":{"parameterUnit":"m.s-1","parameterCategory":1,"la1":30.2991,"la2":30.254,"lo1":-89.0895,"lo2":-89.0444,"dy":0.0017,"dx":0.0017,"nx":28,"ny":28,"refTime":"2024-05-22T09:00:00:Z","depth":0,"parameterNumber":2,"parameterNumberName":"U-component_of_WINDS"},"data":[0,0,0,0,0,0,0,0,0,0,0,0,0,0,0,0,0,0,0,0,0,0,0,0,0,0,0,0,0,0,0,0,0,0,0,0,0,0,0,0,0,0,0,0,0,0,0,0,0,0,0,0,0,0,0,0,0,0,-1.7465,-1.7466,0,-1.7491,-1.7492,-1.7492,-1.7491,-1.7491,-1.7491,-1.749,-1.7518,-1.7519,-1.752,0,0,0,0,0,0,0,0,0,0,0,0,0,-1.7416,-1.7417,-1.7465,-1.7466,-1.7466,-1.7491,-1.7492,-1.7492,-1.7491,-1.7491,-1.7491,-1.749,-1.7517,-1.7519,-1.752,0,0,0,0,0,0,0,0,0,0,0,0,0,-1.7439,-1.7417,-1.7465,-1.7469,-1.7469,-1.7491,-1.7492,-1.7492,-1.7492,-1.7491,-1.749,-1.749,-1.7517,-1.7519,-1.752,-1.7541,0,0,-1.7525,-1.7526,0,0,0,0,0,0,0,0,-1.7438,-1.7441,-1.7468,-1.7468,-1.7469,-1.7488,-1.7484,-1.7508,-1.7492,-1.7483,-1.749,-1.749,-1.7508,-1.751,-1.7517,-1.7542,-1.7543,-1.7525,-1.7526,-1.7527,-1.7527,0,0,0,0,0,0,0,-1.7437,-1.744,-1.7476,-1.7468,-1.7469,-1.7469,-1.7472,-1.7489,-1.7498,-1.7484,-1.7484,-1.7487,-1.7508,-1.7515,-1.7517,-1.7544,-1.7525,-1.7526,-1.7527,-1.7528,-1.7587,-1.7588,0,0,0,0,0,0,-1.7434,-1.7439,-1.7475,-1.7476,-1.7452,-1.7471,-1.7474,-1.7482,-1.7498,-1.75,-1.7487,-1.7487,-1.7513,-1.7515,-1.7518,-1.7543,-1.7527,-1.7528,-1.7529,-1.7586,-1.7587,-1.7588,0,0,0,0,0,0,-1.7433,-1.7437,-1.7474,-1.7458,-1.7462,-1.7472,-1.7482,-1.7483,-1.749,-1.7501,-1.7503,-1.7492,-1.7512,-1.7516,-1.7535,-1.7544,-1.7529,-1.753,-1.7586,-1.7587,-1.7587,-1.7592,0,0,0,0,0,0,-1.7432,-1.7437,-1.7444,-1.7458,-1.7463,-1.749,-1.7482,-1.7484,-1.7492,-1.7492,-1.7506,-1.7508,-1.7512,-1.7533,-1.7537,-1.7546,-1.7532,-1.7585,-1.7586,-1.7587,-1.7591,-1.7593,-1.7595,0,0,0,0,0,-1.743,-1.7445,-1.7445,-1.7449,-1.7473,-1.749,-1.7493,-1.7498,-1.7493,-1.7501,-1.7508,-1.7507,-1.7542,-1.7535,-1.7539,-1.7549,-1.7584,-1.7586,-1.7587,-1.7591,-1.7593,-1.7595,0,0,0,0,0,0,-1.7433,-1.7447,-1.7447,-1.7467,-1.7477,-1.749,-1.75,-1.75,-1.7513,-1.7512,-1.7517,-1.7521,-1.7539,-1.7546,-1.7537,-1.7569,-1.7563,-1.7565,-1.7564,-1.7566,-1.7568,-1.7566,-1.7533,0,0,0,0,0,-1.7436,-1.7448,-1.746,-1.7477,-1.7482,-1.749,-1.7498,-1.7501,-1.7512,-1.7516,-1.7525,-1.7536,-1.755,-1.7559,-1.7572,-1.7593,-1.7596,-1.7602,-1.7604,-1.7605,-1.7607,-1.7618,-1.7621,-1.7592,-1.7592,-1.7592,0,0,-1.7442,-1.7451,-1.7459,-1.7478,-1.7486,-1.7499,-1.7494,-1.7508,-1.7518,-1.7519,-1.7537,-1.7544,-1.7557,-1.7577,-1.7586,-1.7583,-1.7615,-1.7607,-1.7608,-1.7609,-1.762,-1.7622,-1.7625,-1.7593,-1.7593,-1.7593,0,0,-1.746,-1.7468,-1.7482,-1.7491,-1.7504,-1.7509,-1.7513,-1.7526,-1.753,-1.7549,-1.755,-1.7562,-1.7585,-1.7594,-1.7602,-1.7624,-1.7623,-1.7628,-1.7637,-1.7648,-1.765,-1.7652,-1.7659,-1.7662,-1.763,-1.763,-1.763,0,-1.7466,-1.7485,-1.749,-1.7504,-1.7512,-1.7514,-1.7528,-1.7537,-1.7553,-1.7559,-1.7556,-1.7585,-1.7594,-1.7616,-1.7621,-1.7628,-1.7632,-1.7626,-1.7649,-1.7651,-1.7653,-1.766,-1.7663,-1.763,-1.763,-1.763,-1.763,0,-1.7492,-1.7505,-1.7515,-1.7531,-1.7541,-1.7555,-1.7562,-1.7572,-1.7574,-1.758,-1.7598,-1.7609,-1.7624,-1.763,-1.7633,-1.7653,-1.765,-1.7648,-1.7641,-1.7656,-1.7663,-1.7665,-1.7631,-1.7631,-1.7631,-1.7631,0,0,-1.7511,-1.7529,-1.7533,-1.754,-1.7554,-1.7565,-1.758,-1.7595,-1.7602,-1.7614,-1.7626,-1.7646,-1.7644,-1.7653,-1.7657,-1.7667,-1.7682,-1.7663,-1.7664,-1.7666,-1.7705,-1.7705,-1.7708,-1.7683,-1.7683,-1.7684,-1.7703,0,-1.7529,-1.7555,-1.756,-1.7582,-1.7594,-1.7596,-1.7609,-1.762,-1.7626,-1.7638,-1.7645,-1.7659,-1.7656,-1.7661,-1.7671,-1.7678,-1.769,-1.7677,-1.7694,-1.7694,-1.7689,-1.7712,-1.7713,-1.773,-1.7706,-1.7706,-1.7707,0,-1.7554,-1.7566,-1.7589,-1.7602,-1.7607,-1.7619,-1.7632,-1.7644,-1.7656,-1.766,-1.767,-1.7673,-1.7688,-1.7682,-1.7703,-1.7694,-1.7702,-1.7707,-1.7708,-1.7708,-1.7701,-1.7712,-1.7736,-1.7738,-1.7711,-1.771,-1.771,0,-1.7564,-1.7587,-1.7603,-1.7609,-1.7625,-1.7633,-1.764,-1.7652,-1.766,-1.7673,-1.7678,-1.7692,-1.77,-1.7711,-1.7718,-1.7712,-1.7739,-1.7733,-1.7742,-1.7742,-1.7746,-1.7746,-1.7771,-1.7753,-1.7753,-1.7753,-1.7753,0,-1.7584,-1.7598,-1.7608,-1.7618,-1.7634,-1.764,-1.7656,-1.7663,-1.7673,-1.7685,-1.7688,-1.7699,-1.7708,-1.772,-1.7726,-1.7742,-1.7746,-1.7749,-1.775,-1.7748,-1.7748,-1.7753,-1.7751,-1.7754,-1.7753,-1.7753,-1.7753,0,-1.7598,-1.7605,-1.7623,-1.7637,-1.764,-1.7651,-1.7663,-1.7673,-1.768,-1.7695,-1.7699,-1.7709,-1.7724,-1.7732,-1.775,-1.7754,-1.7772,-1.7773,-1.7768,-1.7768,-1.7777,-1.7775,-1.7805,-1.7809,-1.7789,-1.7789,-1.7789,0,-1.7609,-1.762,-1.7634,-1.7642,-1.7649,-1.7662,-1.767,-1.7678,-1.7686,-1.7701,-1.771,-1.7725,-1.7737,-1.776,-1.777,-1.7784,-1.7785,-1.7794,-1.7787,-1.7784,-1.7784,-1.7782,-1.7783,-1.7795,-1.7795,-1.7795,-1.7795,0,-1.7628,-1.7631,-1.7643,-1.7657,-1.7667,-1.7678,-1.7689,-1.7695,-1.7704,-1.7714,-1.7729,-1.7739,-1.7757,-1.7772,-1.7787,-1.7795,-1.7796,-1.7798,-1.78,-1.7798,-1.7794,-1.7795,-1.777,-1.7797,-1.7796,-1.7796,-1.7796,-1.7796,-1.764,-1.765,-1.7661,-1.7675,-1.7684,-1.7694,-1.7704,-1.7712,-1.7724,-1.774,-1.7744,-1.7759,-1.7772,-1.7792,-1.78,-1.7813,-1.7811,-1.7815,-1.7816,-1.7817,-1.7816,-1.7793,-1.7816,-1.7816,-1.7816,-1.7816,-1.7816,0,-1.7659,-1.7666,-1.7679,-1.7694,-1.7704,-1.7705,-1.7717,-1.7726,-1.774,-1.7751,-1.7763,-1.778,-1.7795,-1.7805,-1.782,-1.7828,-1.7829,-1.7832,-1.7831,-1.7832,-1.7818,-1.7813,-1.783,-1.783,-1.783,-1.783,-1.783,-1.783,-1.7669,-1.7685,-1.769,-1.771,-1.7718,-1.7733,-1.774,-1.775,-1.7759,-1.7777,-1.7789,-1.7796,-1.7807,-1.7823,-1.7836,-1.7839,-1.7844,-1.7846,-1.7849,-1.7835,-1.7833,-1.7832,-1.7828,-1.7848,-1.7848,-1.7863,-1.7863,-1.7863]},{"header":{"parameterUnit":"m.s-1","parameterCategory":1,"la1":30.2991,"la2":30.254,"lo1":-89.0895,"lo2":-89.0444,"dy":0.0017,"dx":0.0017,"nx":28,"ny":28,"refTime":"2024-05-22T09:00:00:Z","depth":0,"parameterNumber":3,"parameterNumberName":"V-component_of_WINDS"},"data":[0,0,0,0,0,0,0,0,0,0,0,0,0,0,0,0,0,0,0,0,0,0,0,0,0,0,0,0,0,0,0,0,0,0,0,0,0,0,0,0,0,0,0,0,0,0,0,0,0,0,0,0,0,0,0,0,0,0,0.2658,0.2658,0,0.2676,0.2676,0.2676,0.2653,0.2652,0.2652,0.2651,0.2668,0.267,0.2671,0,0,0,0,0,0,0,0,0,0,0,0,0,0.2604,0.2605,0.2658,0.2658,0.2658,0.2675,0.2676,0.2676,0.2653,0.2652,0.2651,0.265,0.2668,0.2669,0.2671,0,0,0,0,0,0,0,0,0,0,0,0,0,0.2625,0.2606,0.2658,0.2649,0.2649,0.2675,0.2676,0.2676,0.2654,0.2652,0.2651,0.265,0.2668,0.2669,0.2671,0.2707,0,0,0.2677,0.2678,0,0,0,0,0,0,0,0,0.2624,0.2627,0.265,0.265,0.2649,0.2661,0.2663,0.2686,0.2654,0.2652,0.2651,0.2649,0.2667,0.2669,0.2675,0.2708,0.2709,0.2677,0.2678,0.2679,0.2679,0,0,0,0,0,0,0,0.2623,0.2626,0.2665,0.2651,0.265,0.2644,0.2646,0.2667,0.2666,0.2652,0.265,0.2653,0.2666,0.2673,0.2675,0.2709,0.2677,0.2679,0.268,0.268,0.2772,0.2774,0,0,0,0,0,0,0.2622,0.2625,0.2664,0.2665,0.2633,0.2646,0.2648,0.2658,0.2666,0.2666,0.2654,0.2651,0.267,0.2673,0.2675,0.2718,0.2679,0.2681,0.2682,0.2771,0.2773,0.2774,0,0,0,0,0,0,0.2621,0.2626,0.2664,0.2645,0.2649,0.2648,0.266,0.2659,0.2666,0.2667,0.2667,0.2661,0.267,0.2673,0.2699,0.2718,0.2681,0.2683,0.2769,0.2771,0.2773,0.2804,0,0,0,0,0,0,0.262,0.2626,0.264,0.2645,0.265,0.2688,0.2661,0.2661,0.2669,0.2667,0.2674,0.2674,0.2669,0.2697,0.2701,0.272,0.2685,0.2768,0.277,0.2773,0.2801,0.2806,0.2811,0,0,0,0,0,0.2618,0.2648,0.2641,0.2645,0.2668,0.2689,0.2692,0.2686,0.2671,0.2685,0.2685,0.2673,0.2715,0.27,0.2705,0.2724,0.2766,0.277,0.2772,0.2799,0.2805,0.2811,0,0,0,0,0,0,0.2645,0.2648,0.264,0.2673,0.2681,0.2685,0.2703,0.2693,0.2705,0.2702,0.2694,0.2696,0.2724,0.2727,0.2709,0.2759,0.2738,0.2743,0.2757,0.2763,0.2768,0.2767,0.2686,0,0,0,0,0,0.2654,0.2671,0.2673,0.2702,0.2706,0.2704,0.2713,0.2707,0.2715,0.2718,0.272,0.2728,0.2743,0.2753,0.2767,0.2801,0.2802,0.2817,0.2822,0.2826,0.283,0.2848,0.2854,0.2784,0.2784,0.2784,0,0,0.2674,0.2679,0.269,0.2707,0.2713,0.273,0.2707,0.2726,0.2739,0.2721,0.2746,0.2748,0.2756,0.2787,0.28,0.279,0.2849,0.283,0.2833,0.2835,0.2851,0.2858,0.2864,0.2786,0.2785,0.2785,0,0,0.272,0.2725,0.2749,0.2755,0.2763,0.2761,0.2767,0.2772,0.2773,0.2798,0.2785,0.2799,0.2825,0.2831,0.2838,0.2885,0.2874,0.2889,0.2916,0.2934,0.2939,0.2944,0.2961,0.2967,0.2893,0.2893,0.2893,0,0.2744,0.277,0.2763,0.2783,0.2791,0.2775,0.2799,0.2805,0.2817,0.2823,0.2811,0.2843,0.2847,0.2878,0.289,0.2896,0.2902,0.2889,0.2939,0.2944,0.2948,0.2964,0.297,0.2895,0.2895,0.2895,0.2894,0,0.28,0.2818,0.2836,0.2848,0.2858,0.288,0.2876,0.2886,0.288,0.2879,0.2904,0.2908,0.2923,0.2929,0.2923,0.296,0.2953,0.294,0.2919,0.2957,0.2971,0.2977,0.2898,0.2897,0.2896,0.2896,0,0,0.2864,0.2871,0.2878,0.2883,0.289,0.2904,0.2925,0.2938,0.2948,0.2956,0.2974,0.2995,0.2983,0.299,0.2985,0.3,0.3036,0.2985,0.2985,0.2995,0.3077,0.3087,0.3094,0.3029,0.303,0.3031,0.3076,0,0.291,0.2946,0.294,0.2975,0.2991,0.2976,0.2994,0.3,0.3,0.3013,0.3012,0.3028,0.3011,0.3015,0.3029,0.3029,0.3053,0.3026,0.3045,0.3046,0.3044,0.3102,0.3112,0.3155,0.3082,0.3083,0.3083,0,0.2969,0.2979,0.3016,0.302,0.3027,0.3043,0.3055,0.3068,0.3074,0.3073,0.3081,0.3072,0.3092,0.307,0.3098,0.308,0.3087,0.3088,0.3089,0.3091,0.3067,0.3105,0.3168,0.3174,0.3092,0.3092,0.3091,0,0.3012,0.3035,0.3061,0.3065,0.3071,0.3082,0.3085,0.309,0.3099,0.3108,0.3114,0.3126,0.3133,0.3142,0.3137,0.3121,0.3165,0.3143,0.3164,0.3165,0.3175,0.3175,0.324,0.3179,0.3179,0.3179,0.3179,0,0.3064,0.3088,0.308,0.3096,0.3121,0.3112,0.3138,0.3138,0.3143,0.3158,0.3145,0.3159,0.3151,0.3165,0.316,0.3184,0.3187,0.3186,0.3185,0.3187,0.3188,0.3193,0.319,0.3181,0.318,0.318,0.318,0,0.3118,0.3113,0.314,0.3142,0.3143,0.3162,0.3164,0.3178,0.3176,0.3195,0.3199,0.3196,0.3211,0.3206,0.3222,0.3219,0.3249,0.3244,0.3247,0.3246,0.3268,0.3266,0.3339,0.3348,0.3281,0.3282,0.3282,0,0.3152,0.3169,0.3173,0.3182,0.3186,0.3201,0.3209,0.3201,0.321,0.3218,0.3231,0.3245,0.3256,0.3281,0.328,0.3292,0.3287,0.3312,0.3289,0.3291,0.3288,0.3287,0.3289,0.3317,0.3318,0.3318,0.3319,0,0.3212,0.3209,0.3222,0.3233,0.3243,0.3252,0.326,0.3268,0.326,0.3271,0.3286,0.3294,0.3311,0.3325,0.3335,0.3338,0.3327,0.3326,0.3331,0.3335,0.3336,0.3336,0.326,0.3324,0.3324,0.3323,0.3323,0.3323,0.3257,0.3272,0.3277,0.3291,0.3295,0.3302,0.3316,0.3315,0.3328,0.334,0.3334,0.3352,0.3357,0.337,0.3374,0.3388,0.3378,0.3386,0.3388,0.3391,0.3394,0.3333,0.3389,0.3389,0.3389,0.3389,0.3389,0,0.3318,0.332,0.3333,0.3343,0.3354,0.3342,0.335,0.336,0.3375,0.3381,0.3391,0.3409,0.3422,0.3421,0.3433,0.3444,0.344,0.3448,0.3447,0.3448,0.3401,0.3395,0.3451,0.3451,0.3451,0.3451,0.3451,0.3451,0.335,0.3374,0.3371,0.3397,0.3399,0.3416,0.3421,0.3427,0.3432,0.3451,0.3462,0.3462,0.3465,0.3477,0.3488,0.3487,0.3493,0.3503,0.3501,0.3457,0.3451,0.3445,0.344,0.3504,0.3504,0.3546,0.3546,0.3547]}]]